FW8128 Weather Reports


time (UTC)temp
C
wind
direction
speed
KPH
gust
KPH
rain 1hr
cm
rain 24hr
cm
rain mn
cm
humidity
%
barometer
mb
20260504211113 26 305 4.8 12.9 0.00 0.00 0.00 34 1012.4
20260504210610 26 147 3.2 9.7 0.00 0.00 0.00 34 1012.5
20260504210341 26 104 3.2 11.3 0.00 0.00 0.00 34 1012.6
20260504205610 26 0 4.8 11.3 0.00 0.00 0.00 36 1012.6
20260504205110 26 303 3.2 11.3 0.00 0.00 0.00 35 1012.5
20260504204610 26 167 1.6 11.3 0.00 0.00 0.00 36 1012.7
20260504204110 26 91 3.2 12.9 0.00 0.00 0.00 36 1012.8
20260504203610 26 321 3.2 12.9 0.00 0.00 0.00 35 1012.7
20260504203345 26 271 4.8 12.9 0.00 0.00 0.00 35 1013.1
20260504203110 26 295 3.2 11.3 0.00 0.00 0.00 35 1012.8
20260504202107 26 297 3.2 12.9 0.00 0.00 0.00 36 1012.9
20260504201608 26 281 3.2 11.3 0.00 0.00 0.00 36 1013.1
20260504201111 26 189 3.2 9.7 0.00 0.00 0.00 37 1013.2
20260504201107 26 0 3.2 11.3 0.00 0.00 0.00 36 1013.1
20260504200335 26 255 3.2 9.7 0.00 0.00 0.00 35 1013.2
20260504195604 26 236 4.8 11.3 0.00 0.00 0.00 35 1013.2
20260504195105 26 294 3.2 11.3 0.00 0.00 0.00 34 1013.3
20260504194605 26 287 3.2 11.3 0.00 0.00 0.00 37 1013.3
20260504194105 26 0 1.6 11.3 0.00 0.00 0.00 34 1013.4
20260504193605 26 152 3.2 8.0 0.00 0.00 0.00 37 1013.4
20260504193105 26 296 3.2 9.7 0.00 0.00 0.00 37 1013.5
20260504192606 26 278 3.2 11.3 0.00 0.00 0.00 35 1013.6
20260504192333 26 305 3.2 11.3 0.00 0.00 0.00 36 1013.6
20260504191602 26 0 1.6 9.7 0.00 0.00 0.00 36 1013.7
20260504191102 26 205 3.2 9.7 0.00 0.00 0.00 36 1013.8
20260504190559 26 115 1.6 12.9 0.00 0.00 0.00 36 1013.9
20260504190331 25 318 3.2 12.9 0.00 0.00 0.00 36 1014.0
20260504185557 25 150 3.2 9.7 0.00 0.00 0.00 36 1014.0
20260504185057 25 0 1.6 8.0 0.00 0.00 0.00 36 1014.1
20260504184556 25 0 1.6 8.0 0.00 0.00 0.00 38 1014.0
20260504184058 25 296 3.2 11.3 0.00 0.00 0.00 40 1014.1
20260504183557 24 240 3.2 11.3 0.00 0.00 0.00 37 1014.2
20260504183057 24 313 4.8 11.3 0.00 0.00 0.00 38 1014.2
20260504182557 25 299 4.8 12.9 0.00 0.00 0.00 37 1014.3
20260504182100 25 254 3.2 12.9 0.00 0.00 0.00 37 1014.3
20260504182056 25 253 3.2 11.3 0.00 0.00 0.00 37 1014.3
20260504181325 25 331 3.2 11.3 0.00 0.00 0.00 37 1014.3
20260504180555 25 329 3.2 9.7 0.00 0.00 0.00 38 1014.3
20260504180055 25 30 1.6 8.0 0.00 0.00 0.00 38 1014.2
20260504175555 25 212 3.2 9.7 0.00 0.00 0.00 39 1014.3
20260504175055 25 74 3.2 9.7 0.00 0.00 0.00 39 1014.2
20260504174826 25 0 3.2 9.7 0.00 0.00 0.00 38 1014.4
20260504174055 25 340 1.6 8.0 0.00 0.00 0.00 40 1014.5
20260504173828 25 0 3.2 9.7 0.00 0.00 0.00 38 1014.7
20260504173055 24 309 3.2 12.9 0.00 0.00 0.00 40 1014.7
20260504172556 24 318 1.6 12.9 0.00 0.00 0.00 39 1014.7
20260504172056 24 109 1.6 8.0 0.00 0.00 0.00 38 1014.8
20260504171555 24 292 1.6 8.0 0.00 0.00 0.00 38 1014.8
20260504171055 23 0 1.6 8.0 0.00 0.00 0.00 39 1014.9
20260504170824 23 139 3.2 8.0 0.00 0.00 0.00 37 1015.0
20260504151045 21 0 1.6 9.7 0.00 0.00 0.00 45 1016.7
20260504150545 21 249 1.6 9.7 0.00 0.00 0.00 47 1016.6
20260504141043 18 0 1.6 9.7 0.00 0.00 0.00 59 1016.9
20260504140540 18 0 3.2 9.7 0.00 0.00 0.00 61 1016.9
20260504130536 15 0 0.0 6.4 0.00 0.00 0.00 69 1017.2
20260504110513 5 244 1.6 3.2 0.00 0.00 0.00 95 1017.2
20260504100445 5 0 1.6 1.6 0.00 0.00 0.00 94 1017.0
20260504080414 7 316 3.2 9.7 0.00 0.00 0.00 88 1016.6
20260504050404 7 263 4.8 8.0 0.00 0.00 0.00 87 1016.8
20260504045904 7 187 6.4 8.0 0.00 0.00 0.00 87 1016.7
20260504045404 7 162 6.4 8.0 0.00 0.00 0.00 87 1016.7
20260504044905 7 163 6.4 8.0 0.00 0.00 0.00 87 1016.7
20260504044633 7 164 6.4 8.0 0.00 0.00 0.00 87 1016.7
20260504043902 7 275 4.8 8.0 0.00 0.00 0.00 87 1016.7
20260504043402 7 311 4.8 6.4 0.00 0.00 0.00 87 1016.8
20260504042902 7 293 4.8 8.0 0.00 0.00 0.00 87 1016.8
20260504042402 8 271 4.8 8.0 0.00 0.00 0.00 87 1016.8
20260504041902 8 191 4.8 6.4 0.00 0.00 0.00 86 1016.8
20260504041632 8 259 4.8 8.0 0.00 0.00 0.00 86 1016.9
20260504040902 8 181 4.8 8.0 0.00 0.00 0.00 86 1016.9
20260504040402 8 276 4.8 6.4 0.00 0.00 0.00 85 1016.9
20260504040133 8 307 4.8 6.4 0.00 0.00 0.00 85 1017.0
20260504035402 8 308 3.2 6.4 0.00 0.00 0.00 85 1016.9
20260504034900 8 291 3.2 4.8 0.00 0.00 0.00 84 1017.0
20260504034401 8 303 3.2 4.8 0.00 0.00 0.00 83 1017.0
20260504033859 8 271 3.2 4.8 0.00 0.00 0.00 82 1017.0
20260504033359 8 299 1.6 3.2 0.00 0.00 0.00 82 1017.0
20260504032859 8 255 1.6 3.2 0.00 0.00 0.00 81 1017.1
20260504032359 8 264 1.6 3.2 0.00 0.00 0.00 81 1017.1
20260504031900 8 235 1.6 3.2 0.00 0.00 0.00 81 1017.1
20260504031400 8 258 1.6 3.2 0.00 0.00 0.00 81 1017.0
20260504030859 8 251 1.6 3.2 0.00 0.00 0.00 81 1017.0
20260504030400 8 0 0.0 3.2 0.00 0.00 0.00 81 1017.0
20260504025900 8 236 0.0 3.2 0.00 0.00 0.00 81 1017.0
20260504025400 9 242 0.0 3.2 0.00 0.00 0.00 81 1016.9
20260504024904 9 0 1.6 3.2 0.00 0.00 0.00 81 1016.9
20260504024859 9 230 1.6 3.2 0.00 0.00 0.00 81 1016.8
20260504023855 9 240 1.6 3.2 0.00 0.00 0.00 81 1016.7
20260504023355 9 228 0.0 3.2 0.00 0.00 0.00 80 1016.7
20260504022854 9 0 0.0 3.2 0.00 0.00 0.00 80 1016.6
20260504022351 10 264 1.6 3.2 0.00 0.00 0.00 79 1016.6
20260504022126 10 266 0.0 3.2 0.00 0.00 0.00 78 1016.4
20260504021851 10 272 1.6 3.2 0.00 0.00 0.00 78 1016.5
20260504020852 10 259 0.0 3.2 0.00 0.00 0.00 77 1016.4
20260504020351 10 0 0.0 3.2 0.00 0.00 0.00 76 1016.4
20260504015851 10 0 0.0 3.2 0.00 0.00 0.00 76 1016.3
20260504015352 10 274 0.0 3.2 0.00 0.00 0.00 75 1016.3
20260504014851 10 270 0.0 3.2 0.00 0.00 0.00 75 1016.2
20260504014352 10 265 0.0 3.2 0.00 0.00 0.00 74 1016.2
20260504013852 10 0 1.6 4.8 0.00 0.00 0.00 74 1016.1
20260504013352 10 0 1.6 4.8 0.00 0.00 0.00 73 1016.0
20260504012852 10 254 1.6 3.2 0.00 0.00 0.00 70 1015.9
20260504012352 10 262 1.6 4.8 0.00 0.00 0.00 70 1015.9
20260504011850 10 314 1.6 4.8 0.00 0.00 0.00 70 1015.9
20260504011621 11 0 1.6 3.2 0.00 0.00 0.00 68 1015.9
20260504010851 11 310 1.6 3.2 0.00 0.00 0.00 67 1015.8
20260504010350 11 316 1.6 3.2 0.00 0.00 0.00 67 1015.7
20260504005851 11 301 0.0 1.6 0.00 0.00 0.00 66 1015.7
20260504005350 11 308 1.6 4.8 0.00 0.00 0.00 64 1015.6
20260504005120 11 305 3.2 4.8 0.00 0.00 0.00 64 1015.5
20260504004348 12 326 3.2 4.8 0.00 0.00 0.00 62 1015.6
20260504003847 12 324 1.6 4.8 0.00 0.00 0.00 61 1015.6
20260504003345 12 308 0.0 3.2 0.00 0.00 0.00 59 1015.5
20260504002844 12 0 0.0 0.0 0.00 0.00 0.00 58 1015.4
20260504002344 13 0 0.0 0.0 0.00 0.00 0.00 57 1015.3
20260504001848 13 0 0.0 0.0 0.00 0.00 0.00 54 1015.2
20260504001844 13 0 0.0 0.0 0.00 0.00 0.00 55 1015.3
20260504001116 14 0 0.0 0.0 0.00 0.00 0.00 52 1015.1
20260504000346 14 0 0.0 0.0 0.00 0.00 0.00 52 1015.1
20260503235841 15 0 0.0 0.0 0.00 0.00 0.00 52 1015.1
20260503235613 15 0 0.0 0.0 0.00 0.00 0.00 51 1015.1
20260503234841 15 0 0.0 0.0 0.00 0.00 0.00 49 1015.1
20260503234342 16 0 0.0 0.0 0.00 0.00 0.00 48 1015.1
20260503234116 16 0 0.0 0.0 0.00 0.00 0.00 46 1015.1
20260503233841 16 0 0.0 0.0 0.00 0.00 0.00 47 1015.1
20260503232842 17 0 0.0 0.0 0.00 0.00 0.00 44 1015.0
20260503232342 17 0 0.0 4.8 0.00 0.00 0.00 43 1015.0
20260503231842 17 0 0.0 6.4 0.00 0.00 0.00 42 1015.0
20260503231342 17 0 1.6 8.0 0.00 0.00 0.00 41 1015.0
20260503230844 17 0 1.6 8.0 0.00 0.00 0.00 39 1015.0
20260503230339 17 253 1.6 8.0 0.00 0.00 0.00 41 1015.0
20260503225840 18 0 0.0 3.2 0.00 0.00 0.00 41 1015.0
20260503225608 18 0 1.6 9.7 0.00 0.00 0.00 39 1015.1
20260503224837 18 230 1.6 9.7 0.00 0.00 0.00 38 1015.1
20260503224336 18 0 1.6 8.0 0.00 0.00 0.00 39 1015.1
20260503223837 18 0 3.2 14.5 0.00 0.00 0.00 36 1015.1
20260503223338 18 227 3.2 14.5 0.00 0.00 0.00 36 1015.1
20260503222837 18 249 3.2 9.7 0.00 0.00 0.00 36 1015.2
20260503222338 18 39 1.6 8.0 0.00 0.00 0.00 36 1015.2
20260503221837 18 250 1.6 12.9 0.00 0.00 0.00 36 1015.2
20260503221337 18 0 3.2 12.9 0.00 0.00 0.00 37 1015.2
20260503220835 18 41 3.2 12.9 0.00 0.00 0.00 36 1015.2
20260503220334 19 243 1.6 8.0 0.00 0.00 0.00 37 1015.3
20260503215834 19 246 1.6 8.0 0.00 0.00 0.00 35 1015.2
20260503215335 20 26 1.6 9.7 0.00 0.00 0.00 35 1015.3
20260503214834 20 330 3.2 9.7 0.00 0.00 0.00 34 1015.4
20260503214335 20 0 1.6 6.4 0.00 0.00 0.00 32 1015.4
20260503213835 20 0 1.6 9.7 0.00 0.00 0.00 33 1015.5
20260503213335 20 0 3.2 11.3 0.00 0.00 0.00 34 1015.5
20260503212836 20 27 3.2 11.3 0.00 0.00 0.00 34 1015.4
20260503212335 20 0 1.6 6.4 0.00 0.00 0.00 34 1015.5
20260503211835 20 0 3.2 9.7 0.00 0.00 0.00 34 1015.5
20260503211335 20 261 3.2 9.7 0.00 0.00 0.00 33 1015.6